Location: Helsinki
(60.1699°N, 24.9384°E)
Time: 00:00:04
(UTC+02:00)

Vanguard 2 Rocket - Pass Details

Date: 26 September 2023
Orbit: 553 x 3312 km, 32.9° (Epoch: 28 November)

Event Time Altitude Azimuth Distance (km) Brightness Sun altitude
Rises 14:36:30 0° 236° (WSW) 7,066 12.3 26.4°
Reaches altitude 10° 14:42:19 10° 226° (SW) 6,210 12.5 26.1°
Maximum altitude 14:56:46 26° 180° (S) 4,891 12.0 25.3°
Drops below altitude 10° 15:09:39 10° 133° (SE) 5,509 11.1 24.4°
Sets 15:14:22 0° 122° (ESE) 6,159 11.1 24.1°
